Time,TemperatureF,DewpointF,PressureIn,WindDirection,WindDirectionDegrees,WindSpeedMPH,WindSpeedGustMPH,Humidity,HourlyPrecipIn,Conditions,Clouds,dailyrainin,SolarRadiationWatts/m^2,SoftwareType,DateUTC
2013-09-22 00:03:00,-999.0,-99.9,-100.00,ENE,61,0.0,0.0,-999,-99.99,,,-99.99,0.000000,,2013-09-22 04:03:00,
2013-09-22 00:14:00,75.0,72.0,-100.00,ENE,61,0.0,0.0,89,0.00,,,0.00,0.000000,,2013-09-22 04:14:00,
2013-09-22 00:54:00,74.0,71.0,-100.00,East,81,0.0,0.0,91,0.00,,,0.00,0.000000,,2013-09-22 04:54:00,
2013-09-22 01:03:00,74.0,71.0,-100.00,East,81,0.0,0.0,91,0.00,,,0.00,0.000000,,2013-09-22 05:03:00,
2013-09-22 01:13:00,74.0,71.0,-100.00,East,81,0.0,0.0,91,0.00,,,0.00,0.000000,,2013-09-22 05:13:00,
2013-09-22 01:43:00,74.0,72.0,-100.00,East,90,0.0,0.0,93,0.00,,,0.00,0.000000,,2013-09-22 05:43:00,
2013-09-22 01:53:00,74.0,72.0,-100.00,East,90,0.0,0.0,93,0.00,,,0.00,0.000000,,2013-09-22 05:53:00,
2013-09-22 02:02:00,74.0,72.0,-100.00,East,90,0.0,0.0,93,0.00,,,0.00,0.000000,,2013-09-22 06:02:00,
2013-09-22 02:12:00,74.0,72.0,-100.00,East,90,0.0,0.0,93,0.00,,,0.00,0.000000,,2013-09-22 06:12:00,
2013-09-22 02:42:00,74.0,72.0,-100.00,East,94,0.0,0.0,93,0.00,,,0.00,0.000000,,2013-09-22 06:42:00,
2013-09-22 02:52:00,74.0,72.0,-100.00,East,94,0.0,0.0,93,0.00,,,0.00,0.000000,,2013-09-22 06:52:00,
2013-09-22 03:02:00,74.0,72.0,-100.00,East,94,0.0,0.0,93,0.00,,,0.00,0.000000,,2013-09-22 07:02:00,
2013-09-22 03:12:00,74.0,72.0,-100.00,East,94,0.0,0.0,93,0.00,,,0.00,0.000000,,2013-09-22 07:12:00,
2013-09-22 03:42:00,74.0,72.0,-100.00,East,96,0.0,0.0,94,0.00,,,0.00,0.000000,,2013-09-22 07:42:00,
2013-09-22 03:52:00,74.0,72.0,-100.00,East,96,0.0,0.0,94,0.00,,,0.00,0.000000,,2013-09-22 07:52:00,
2013-09-22 04:04:00,74.0,72.0,-100.00,East,96,0.0,0.0,94,0.00,,,0.00,0.000000,,2013-09-22 08:04:00,
2013-09-22 04:12:00,74.0,72.0,-100.00,East,96,0.0,0.0,94,0.00,,,0.00,0.000000,,2013-09-22 08:12:00,
2013-09-22 04:42:00,75.0,73.0,-100.00,ESE,111,0.0,3.0,95,0.00,,,0.00,0.000000,,2013-09-22 08:42:00,
2013-09-22 04:52:00,75.0,73.0,-100.00,ESE,111,0.0,3.0,95,0.00,,,0.00,0.000000,,2013-09-22 08:52:00,
2013-09-22 05:02:00,75.0,73.0,-100.00,ESE,111,0.0,3.0,95,0.00,,,0.00,0.000000,,2013-09-22 09:02:00,
2013-09-22 05:11:00,75.0,73.0,-100.00,ESE,111,0.0,3.0,95,0.00,,,0.00,0.000000,,2013-09-22 09:11:00,
2013-09-22 05:43:00,76.0,74.0,-100.00,ESE,116,0.0,4.0,95,0.00,,,0.00,0.000000,,2013-09-22 09:43:00,
2013-09-22 05:54:00,76.0,74.0,-100.00,ESE,116,0.0,4.0,95,0.00,,,0.00,0.000000,,2013-09-22 09:54:00,
2013-09-22 06:04:00,76.0,74.0,-100.00,ESE,116,0.0,4.0,95,0.00,,,0.00,0.000000,,2013-09-22 10:04:00,
2013-09-22 06:12:00,76.0,74.0,-100.00,ESE,116,0.0,4.0,95,0.00,,,0.00,0.000000,,2013-09-22 10:12:00,
2013-09-22 06:44:00,75.0,73.0,-100.00,East,96,0.0,3.0,95,0.00,,,0.00,0.000000,,2013-09-22 10:44:00,
2013-09-22 06:53:00,75.0,73.0,-100.00,East,96,0.0,3.0,95,0.00,,,0.00,0.000000,,2013-09-22 10:53:00,
2013-09-22 07:12:00,75.0,73.0,-100.00,East,96,0.0,3.0,95,0.00,,,0.00,0.000000,,2013-09-22 11:12:00,
2013-09-22 07:42:00,78.0,74.0,-100.00,SSE,154,3.0,7.0,89,0.00,,,0.00,1.000000,,2013-09-22 11:42:00,
2013-09-22 07:52:00,78.0,74.0,-100.00,SSE,154,3.0,7.0,89,0.00,,,0.00,1.000000,,2013-09-22 11:52:00,
2013-09-22 08:02:00,78.0,74.0,-100.00,SSE,154,3.0,7.0,89,0.00,,,0.00,1.000000,,2013-09-22 12:02:00,
2013-09-22 08:12:00,78.0,74.0,-100.00,SSE,154,3.0,7.0,89,0.00,,,0.00,1.000000,,2013-09-22 12:12:00,
2013-09-22 08:42:00,81.0,72.0,-100.00,SSE,165,4.0,8.0,74,0.00,,,0.00,45.000000,,2013-09-22 12:42:00,
2013-09-22 08:52:00,81.0,72.0,-100.00,SSE,165,4.0,8.0,74,0.00,,,0.00,45.000000,,2013-09-22 12:52:00,
2013-09-22 09:02:00,81.0,72.0,-100.00,SSE,165,4.0,8.0,74,0.00,,,0.00,45.000000,,2013-09-22 13:02:00,
2013-09-22 09:12:00,81.0,72.0,-100.00,SSE,165,4.0,8.0,74,0.00,,,0.00,45.000000,,2013-09-22 13:12:00,
2013-09-22 09:42:00,84.0,73.0,-100.00,South,169,5.0,10.0,70,0.00,,,0.00,173.000000,,2013-09-22 13:42:00,
2013-09-22 09:52:00,84.0,73.0,-100.00,South,169,5.0,10.0,70,0.00,,,0.00,173.000000,,2013-09-22 13:52:00,
2013-09-22 10:02:00,84.0,73.0,-100.00,South,169,5.0,10.0,70,0.00,,,0.00,173.000000,,2013-09-22 14:02:00,
2013-09-22 10:11:00,84.0,73.0,-100.00,South,169,5.0,10.0,70,0.00,,,0.00,173.000000,,2013-09-22 14:11:00,
2013-09-22 10:42:00,86.0,73.0,-100.00,SSW,199,5.0,9.0,66,0.00,,,0.00,330.000000,,2013-09-22 14:42:00,
2013-09-22 10:53:00,86.0,73.0,-100.00,SSW,199,5.0,9.0,66,0.00,,,0.00,330.000000,,2013-09-22 14:53:00,
2013-09-22 11:02:00,86.0,73.0,-100.00,SSW,199,5.0,9.0,66,0.00,,,0.00,330.000000,,2013-09-22 15:02:00,
2013-09-22 11:12:00,86.0,73.0,-100.00,SSW,199,5.0,9.0,66,0.00,,,0.00,330.000000,,2013-09-22 15:12:00,
2013-09-22 11:44:00,84.0,74.0,-100.00,SSW,206,6.0,11.0,73,0.00,,,0.00,326.000000,,2013-09-22 15:44:00,
2013-09-22 11:55:00,84.0,74.0,-100.00,SSW,206,6.0,11.0,73,0.00,,,0.00,326.000000,,2013-09-22 15:55:00,
2013-09-22 12:04:00,84.0,74.0,-100.00,SSW,206,6.0,11.0,73,0.00,,,0.00,326.000000,,2013-09-22 16:04:00,
2013-09-22 12:13:00,84.0,74.0,-100.00,SSW,206,6.0,11.0,73,0.00,,,0.00,326.000000,,2013-09-22 16:13:00,
2013-09-22 12:43:00,87.0,75.0,-100.00,South,184,6.0,12.0,67,0.00,,,0.00,547.000000,,2013-09-22 16:43:00,
2013-09-22 12:54:00,87.0,75.0,-100.00,South,184,6.0,12.0,67,0.00,,,0.00,547.000000,,2013-09-22 16:54:00,
2013-09-22 13:04:00,87.0,75.0,-100.00,South,184,6.0,12.0,67,0.00,,,0.00,547.000000,,2013-09-22 17:04:00,
2013-09-22 13:12:00,87.0,75.0,-100.00,South,184,6.0,12.0,67,0.00,,,0.00,547.000000,,2013-09-22 17:12:00,
2013-09-22 13:43:00,87.0,74.0,-100.00,SSW,198,7.0,12.0,66,0.00,,,0.00,559.000000,,2013-09-22 17:43:00,
2013-09-22 13:53:00,87.0,74.0,-100.00,SSW,198,7.0,12.0,66,0.00,,,0.00,559.000000,,2013-09-22 17:53:00,
2013-09-22 14:03:00,87.0,74.0,-100.00,SSW,198,7.0,12.0,66,0.00,,,0.00,559.000000,,2013-09-22 18:03:00,
2013-09-22 14:13:00,87.0,74.0,-100.00,SSW,198,7.0,12.0,66,0.00,,,0.00,559.000000,,2013-09-22 18:13:00,
2013-09-22 14:42:00,88.0,74.0,-100.00,SSW,213,6.0,12.0,64,0.00,,,0.00,659.000000,,2013-09-22 18:42:00,
2013-09-22 14:52:00,88.0,74.0,-100.00,SSW,213,6.0,12.0,64,0.00,,,0.00,659.000000,,2013-09-22 18:52:00,
2013-09-22 15:02:00,88.0,74.0,-100.00,SSW,213,6.0,12.0,64,0.00,,,0.00,659.000000,,2013-09-22 19:02:00,
2013-09-22 15:11:00,88.0,74.0,-100.00,SSW,213,6.0,12.0,64,0.00,,,0.00,659.000000,,2013-09-22 19:11:00,
2013-09-22 15:42:00,87.0,74.0,-100.00,SW,232,6.0,12.0,66,0.00,,,0.00,609.000000,,2013-09-22 19:42:00,
2013-09-22 15:53:00,87.0,74.0,-100.00,SW,232,6.0,12.0,66,0.00,,,0.00,609.000000,,2013-09-22 19:53:00,
2013-09-22 16:03:00,87.0,74.0,-100.00,SW,232,6.0,12.0,66,0.00,,,0.00,609.000000,,2013-09-22 20:03:00,
2013-09-22 16:12:00,87.0,74.0,-100.00,SW,232,6.0,12.0,66,0.00,,,0.00,609.000000,,2013-09-22 20:12:00,
2013-09-22 16:42:00,88.0,75.0,-100.00,WSW,245,7.0,11.0,66,0.00,,,0.00,524.000000,,2013-09-22 20:42:00,
2013-09-22 16:52:00,88.0,75.0,-100.00,WSW,245,7.0,11.0,66,0.00,,,0.00,524.000000,,2013-09-22 20:52:00,
2013-09-22 17:02:00,88.0,75.0,-100.00,WSW,245,7.0,11.0,66,0.00,,,0.00,524.000000,,2013-09-22 21:02:00,
2013-09-22 17:12:00,88.0,75.0,-100.00,WSW,245,7.0,11.0,66,0.00,,,0.00,524.000000,,2013-09-22 21:12:00,
2013-09-22 17:45:00,87.0,75.0,-100.00,WSW,245,6.0,10.0,67,0.00,,,0.00,402.000000,,2013-09-22 21:45:00,
2013-09-22 17:54:00,87.0,75.0,-100.00,WSW,245,6.0,10.0,67,0.00,,,0.00,402.000000,,2013-09-22 21:54:00,
2013-09-22 18:04:00,87.0,75.0,-100.00,WSW,245,6.0,10.0,67,0.00,,,0.00,402.000000,,2013-09-22 22:04:00,
2013-09-22 18:14:00,87.0,75.0,-100.00,WSW,245,6.0,10.0,67,0.00,,,0.00,402.000000,,2013-09-22 22:14:00,
2013-09-22 18:43:00,87.0,75.0,-100.00,WSW,241,6.0,9.0,68,0.00,,,0.00,245.000000,,2013-09-22 22:43:00,
2013-09-22 18:54:00,87.0,75.0,-100.00,WSW,241,6.0,9.0,68,0.00,,,0.00,245.000000,,2013-09-22 22:54:00,
2013-09-22 19:03:00,87.0,75.0,-100.00,WSW,241,6.0,9.0,68,0.00,,,0.00,245.000000,,2013-09-22 23:03:00,
2013-09-22 19:12:00,87.0,75.0,-100.00,WSW,241,6.0,9.0,68,0.00,,,0.00,245.000000,,2013-09-22 23:12:00,
2013-09-22 19:43:00,83.0,74.0,-100.00,West,261,3.0,8.0,75,0.00,,,0.00,48.000000,,2013-09-22 23:43:00,
2013-09-22 19:52:00,83.0,74.0,-100.00,West,261,3.0,8.0,75,0.00,,,0.00,48.000000,,2013-09-22 23:52:00,
2013-09-22 20:01:00,83.0,74.0,-100.00,West,261,3.0,8.0,75,0.00,,,0.00,48.000000,,2013-09-23 00:01:00,
2013-09-22 20:12:00,83.0,74.0,-100.00,West,261,3.0,8.0,75,0.00,,,0.00,48.000000,,2013-09-23 00:12:00,
2013-09-22 20:42:00,80.0,75.0,-100.00,West,277,0.0,5.0,85,0.00,,,0.00,1.000000,,2013-09-23 00:42:00,
2013-09-22 20:53:00,80.0,75.0,-100.00,West,277,0.0,5.0,85,0.00,,,0.00,1.000000,,2013-09-23 00:53:00,
2013-09-22 21:01:00,80.0,75.0,-100.00,West,277,0.0,5.0,85,0.00,,,0.00,1.000000,,2013-09-23 01:01:00,
2013-09-22 21:12:00,80.0,75.0,-100.00,West,277,0.0,5.0,85,0.00,,,0.00,1.000000,,2013-09-23 01:12:00,
2013-09-22 21:43:00,78.0,74.0,-100.00,SSW,207,0.0,2.0,89,0.00,,,0.00,0.000000,,2013-09-23 01:43:00,
2013-09-22 21:52:00,78.0,74.0,-100.00,SSW,207,0.0,2.0,89,0.00,,,0.00,0.000000,,2013-09-23 01:52:00,
2013-09-22 22:02:00,78.0,74.0,-100.00,SSW,207,0.0,2.0,89,0.00,,,0.00,0.000000,,2013-09-23 02:02:00,
2013-09-22 22:11:00,78.0,74.0,-100.00,SSW,207,0.0,2.0,89,0.00,,,0.00,0.000000,,2013-09-23 02:11:00,
2013-09-22 22:42:00,77.0,74.0,-100.00,ESE,112,0.0,0.0,91,0.00,,,0.00,0.000000,,2013-09-23 02:42:00,
2013-09-22 22:52:00,77.0,74.0,-100.00,ESE,112,0.0,0.0,91,0.00,,,0.00,0.000000,,2013-09-23 02:52:00,
2013-09-22 23:03:00,77.0,74.0,-100.00,ESE,112,0.0,0.0,91,0.00,,,0.00,0.000000,,2013-09-23 03:03:00,
2013-09-22 23:12:00,77.0,74.0,-100.00,ESE,112,0.0,0.0,91,0.00,,,0.00,0.000000,,2013-09-23 03:12:00,
2013-09-22 23:44:00,77.0,75.0,-100.00,ESE,118,1.0,2.0,93,0.00,,,0.00,0.000000,,2013-09-23 03:44:00,
2013-09-22 23:54:00,77.0,75.0,-100.00,ESE,118,1.0,2.0,93,0.00,,,0.00,0.000000,,2013-09-23 03:54:00,